Flag for Switzerland Weather past 2 weeks in Lausanne, Vaud, Switzerland

Now
63 °F

Mild.


Feels Like: 63 °F
Forecast: 43 / 53 °F
Wind: 13 mph from North

Location: Aigle

Current Time: Apr 27, 2015 at 2:34:37 PM

Latest Report: Apr 27, 2015 at 1:00 PM


Visibility: N/A

Pressure: 29.47 "Hg

Humidity: 73%

Dew point: 54 °F

Location of LausanneLocation

Historic Weather in Lausanne — Graph

°F

Lausanne temperature yesterday

Maximum temperature yesterday: 62 °F (at 1:00 PM)
Minimum temperature yesterday: 51 °F (at 3:00 AM)
Average temperature yesterday: 56 °F

Past Weeks' High & Low Weather Summary

 TemperatureHumidityPressure
High72 °F (Apr 15, 6:00 PM)98% (Apr 18, 6:00 AM)30.47 "Hg (Apr 18, 6:00 AM)
Low38 °F (Apr 20, 7:00 AM)26% (Apr 15, 6:00 PM)29.47 "Hg (Apr 27, 1:00 PM)
Average55 °F69%30.08 "Hg
* Reported Apr 12 1:00 PM — Apr 27 1:00 PM, Lausanne, Weather by CustomWeather, © 2015

Note: Actual official high and low records may vary slightly from our data, if they occured in-between our weather recording intervals... More about our weather records

Advertising

Lausanne weather history for previous 24 hours

 ConditionsComfort  
Time TempWeatherWind HumidityBarometerVisibility
1:00 PM
Mon, Apr 27
63 °FMild.13 mph73%29.47 "HgN/A
12:00 PM63 °FMild.12 mph74%29.50 "HgN/A
11:00 AM63 °FPassing clouds.9 mph72%29.50 "Hg25 mi
10:00 AM60 °FCool.5 mph81%29.54 "HgN/A
9:00 AM57 °FCool.3 mph87%29.57 "HgN/A
8:00 AM54 °FOvercast.3 mph93%29.60 "Hg14 mi
7:00 AM52 °FCool.1 mph94%29.60 "HgN/A
6:00 AM51 °FCool.2 mph95%29.60 "HgN/A
5:00 AM51 °FFog.1 mph97%29.61 "Hg4 mi
4:00 AM51 °FCool.2 mph96%29.61 "HgN/A
3:00 AM51 °FCool.1 mph96%29.65 "HgN/A
2:00 AM52 °FCool.1 mph97%29.66 "HgN/A
1:00 AM52 °FCool.3 mph96%29.67 "HgN/A
12:00 AM53 °FCool.1 mph94%29.67 "HgN/A
10:00 PM
Sun, Apr 26
54 °FCool.1 mph95%29.68 "HgN/A
9:00 PM56 °FCool.3 mph91%29.68 "HgN/A
8:00 PM59 °FOvercast.3 mph84%29.66 "Hg16 mi
7:00 PM60 °FCool.3 mph80%29.65 "HgN/A
6:00 PM59 °FCool.5 mph83%29.68 "HgN/A
5:00 PM57 °FRain. Overcast.1 mph84%29.72 "Hg9 mi
4:00 PM58 °FCool.5 mph76%29.74 "HgN/A
3:00 PM59 °FCool.10 mph69%29.74 "HgN/A
2:00 PM60 °FOvercast.13 mph72%29.75 "Hg19 mi
Weather by CustomWeather, © 2015

See weather overviewHow to use our weather pages